Date String (YYYY-MM-DD hh:mm:ss) UTC,Instrument flags,absolute air pressure of the measurement (hPa),sample flow rate (lpm),inlet stack bypass flow (lpm),air temperature of the measurement (°C),ambient temperature measured by the external sensor (°C),aerosol sample conditioner tube jacket temperature (°C),OPC LED temperature (°C),internal box temperature (°C),relative humidity of the measurement (%),span deviation,mass concentration of particles derived from Lorenz-Mie calculation of OPC scattering (μg/m³),mass concentration of particles derived from Lorenz-Mie calculation of OPC scattering (μg/m³),mass concentration of particles derived from Lorenz-Mie calculation of OPC scattering (μg/m³)
DateTimeUTC,F1_M11,P_M11,Q1_M11,Q2_M11,T1_M11,T2_M11,T3_M11,T4_M11,T5_M11,U1_M11,ZSPAN_M11,X0_M11,X2_M11,X1_M11
2023-08-05 02:00:00,SystemResetWarning,0831.6,5.00,000.00,028.9,025.5,000.0,037.0,030.4,18.5,0000.0,0006.16,0002.61,0001.82
2023-08-05 02:01:00,SystemResetWarning,0831.6,5.01,000.00,028.8,025.6,000.0,037.0,030.3,18.6,0000.0,0006.49,0002.61,0001.82
2023-08-05 02:02:00,SystemResetWarning,0831.6,5.01,000.00,028.8,025.9,000.0,037.1,030.3,18.8,0000.0,0006.52,0002.61,0001.82
2023-08-05 02:03:00,SystemResetWarning,0831.7,4.98,000.00,028.8,026.2,000.0,037.1,030.3,18.9,0000.0,0006.39,0002.58,0001.83
2023-08-05 02:04:00,SystemResetWarning,0831.7,5.00,000.00,028.8,026.6,000.0,037.1,030.5,18.9,0000.0,0006.81,0002.49,0001.82
2023-08-05 02:05:00,SystemResetWarning,0831.7,5.01,000.00,028.9,027.0,000.0,037.2,030.6,18.9,0000.0,0006.19,0002.47,0001.82
2023-08-05 02:06:00,SystemResetWarning,0831.7,5.01,000.00,028.9,027.3,000.0,037.2,030.7,18.9,0000.0,0006.22,0002.45,0001.81
2023-08-05 02:07:00,SystemResetWarning,0831.7,4.99,000.00,029.0,027.5,000.0,037.2,030.8,18.7,0000.0,0006.58,0002.50,0001.81
2023-08-05 02:08:00,SystemResetWarning,0831.8,4.99,000.00,029.0,027.4,000.0,037.2,030.8,18.7,0000.0,0006.77,0002.56,0001.84
2023-08-05 02:09:00,SystemResetWarning,0831.7,5.00,000.00,029.0,025.9,000.0,037.1,030.5,18.8,0000.0,0006.79,0002.57,0001.86
2023-08-05 02:10:00,SystemResetWarning,0832.0,5.00,000.00,028.9,025.5,000.0,037.1,030.4,18.9,0000.0,0006.96,0002.61,0001.87
2023-08-05 02:11:00,SystemResetWarning,0832.2,5.01,000.00,028.9,025.7,000.0,037.1,030.3,18.9,0000.0,0006.96,0002.64,0001.88
2023-08-05 02:12:00,SystemResetWarning,0832.0,5.00,000.00,028.8,026.0,000.0,037.1,030.3,19.0,0000.0,0007.03,0002.61,0001.89
2023-08-05 02:13:00,SystemResetWarning,0831.8,5.00,000.00,028.9,026.4,000.0,037.2,030.5,19.0,0000.0,0007.05,0002.58,0001.90
2023-08-05 02:14:00,SystemResetWarning,0831.8,5.00,000.00,028.9,026.8,000.0,037.2,030.6,19.0,0000.0,0007.52,0002.62,0001.91
2023-08-05 02:15:00,SystemResetWarning,0831.8,5.00,000.00,028.9,027.1,000.0,037.2,030.7,18.9,0000.0,0007.30,0002.67,0001.91
2023-08-05 02:16:00,SystemResetWarning,0831.9,5.00,000.00,029.0,027.4,000.0,037.3,030.8,18.8,0000.0,0007.37,0002.72,0001.92
2023-08-05 02:17:00,SystemResetWarning,0831.9,5.00,000.00,029.0,027.7,000.0,037.3,030.8,18.7,0000.0,0007.82,0002.70,0001.92
2023-08-05 02:18:00,SystemResetWarning,0831.9,4.97,000.00,029.0,026.8,000.0,037.3,030.7,18.5,0000.0,0007.66,0002.72,0001.92
2023-08-05 02:19:00,SystemResetWarning,0831.8,5.01,000.00,029.0,025.5,000.0,037.2,030.4,18.6,0000.0,0007.57,0002.65,0001.89
2023-08-05 02:20:00,SystemResetWarning,0831.9,5.02,000.00,028.9,025.5,000.0,037.1,030.4,18.6,0000.0,0007.47,0002.63,0001.89
2023-08-05 02:21:00,SystemResetWarning,0831.9,5.00,000.00,028.9,025.8,000.0,037.2,030.3,18.7,0000.0,0007.39,0002.62,0001.89
2023-08-05 02:22:00,SystemResetWarning,0831.9,5.00,000.00,028.9,026.2,000.0,037.2,030.4,18.7,0000.0,0007.42,0002.66,0001.88
2023-08-05 02:23:00,SystemResetWarning,0832.0,5.00,000.00,028.9,026.6,000.0,037.2,030.5,18.7,0000.0,0007.36,0002.70,0001.87
2023-08-05 02:24:00,SystemResetWarning,0832.0,4.99,000.00,028.9,026.9,000.0,037.3,030.6,18.7,0000.0,0007.17,0002.70,0001.86
2023-08-05 02:25:00,SystemResetWarning,0832.0,5.00,000.00,029.0,027.2,000.0,037.3,030.7,18.7,0000.0,0006.73,0002.68,0001.86
2023-08-05 02:26:00,SystemResetWarning,0832.0,5.01,000.00,029.0,027.5,000.0,037.3,030.8,18.6,0000.0,0006.29,0002.67,0001.86
2023-08-05 02:27:00,SystemResetWarning,0832.0,4.98,000.00,029.0,026.7,000.0,037.3,030.7,18.6,0000.0,0005.67,0002.61,0001.86
2023-08-05 02:28:00,SystemResetWarning,0832.0,4.99,000.00,029.0,024.9,000.0,037.1,030.3,18.7,0000.0,0004.70,0002.60,0001.86
2023-08-05 02:29:00,SystemResetWarning,0832.0,5.02,000.00,028.9,024.3,000.0,037.0,030.2,18.7,0000.0,0004.52,0002.54,0001.87
2023-08-05 02:30:00,SystemResetWarning,0832.0,5.00,000.00,028.8,024.6,000.0,037.0,030.1,18.8,0000.0,0004.67,0002.57,0001.88
2023-08-05 02:31:00,SystemResetWarning,0832.0,5.00,000.00,028.7,025.1,000.0,037.1,030.0,19.1,0000.0,0004.79,0002.61,0001.89
2023-08-05 02:32:00,SystemResetWarning,0832.0,5.00,000.00,028.7,025.6,000.0,037.1,030.2,19.3,0000.0,0004.92,0002.61,0001.87
2023-08-05 02:33:00,SystemResetWarning,0832.1,5.00,000.00,028.7,026.1,000.0,037.1,030.3,19.4,0000.0,0004.86,0002.56,0001.87
2023-08-05 02:34:00,SystemResetWarning,0832.1,5.01,000.00,028.7,026.5,000.0,037.2,030.4,19.1,0000.0,0004.82,0002.56,0001.88
2023-08-05 02:35:00,SystemResetWarning,0832.1,5.00,000.00,028.8,026.8,000.0,037.2,030.5,18.9,0000.0,0005.06,0002.59,0001.89
2023-08-05 02:36:00,SystemResetWarning,0832.1,5.00,000.00,028.8,027.1,000.0,037.2,030.6,18.9,0000.0,0005.00,0002.62,0001.88
2023-08-05 02:37:00,SystemResetWarning,0832.2,5.00,000.00,028.9,027.4,000.0,037.2,030.7,18.9,0000.0,0004.92,0002.62,0001.88
2023-08-05 02:38:00,SystemResetWarning,0832.2,5.00,000.00,028.9,027.6,000.0,037.3,030.7,18.9,0000.0,0004.84,0002.62,0001.88
2023-08-05 02:39:00,SystemResetWarning,0832.2,5.00,000.00,029.0,027.8,000.0,037.3,030.8,19.0,0000.0,0004.76,0002.62,0001.87
2023-08-05 02:40:00,SystemResetWarning,0832.1,5.00,000.00,029.0,026.6,000.0,037.2,030.6,18.9,0000.0,0004.67,0002.58,0001.86
2023-08-05 02:41:00,SystemResetWarning,0832.2,5.00,000.00,028.9,025.4,000.0,037.1,030.4,19.0,0000.0,0004.72,0002.61,0001.86
2023-08-05 02:42:00,SystemResetWarning,0832.2,5.00,000.00,028.9,025.4,000.0,037.1,030.2,18.9,0000.0,0004.75,0002.63,0001.87
2023-08-05 02:43:00,SystemResetWarning,0832.2,5.02,000.00,028.8,025.7,000.0,037.1,030.2,18.9,0000.0,0004.71,0002.61,0001.87
2023-08-05 02:44:00,SystemResetWarning,0832.2,5.00,000.00,028.8,026.1,000.0,037.2,030.3,19.0,0000.0,0004.67,0002.61,0001.88
2023-08-05 02:45:00,SystemResetWarning,0832.2,5.00,000.00,028.8,026.5,000.0,037.2,030.4,19.0,0000.0,0004.54,0002.59,0001.88
2023-08-05 02:46:00,SystemResetWarning,0832.2,5.00,000.00,028.9,026.8,000.0,037.2,030.5,18.9,0000.0,0004.18,0002.56,0001.87
2023-08-05 02:47:00,SystemResetWarning,0832.2,5.00,000.00,028.9,027.2,000.0,037.3,030.6,19.1,0000.0,0004.74,0002.56,0001.87
2023-08-05 02:48:00,SystemResetWarning,0832.3,5.00,000.00,028.9,027.4,000.0,037.3,030.7,19.1,0000.0,0004.81,0002.56,0001.88
2023-08-05 02:49:00,SystemResetWarning,0832.3,5.00,000.00,029.0,027.7,000.0,037.3,030.8,19.1,0000.0,0004.81,0002.56,0001.88
2023-08-05 02:50:00,SystemResetWarning,0832.3,5.00,000.00,029.1,027.8,000.0,037.4,030.9,19.2,0000.0,0004.84,0002.58,0001.88
2023-08-05 02:51:00,SystemResetWarning,0832.3,4.99,000.00,029.1,027.0,000.0,037.3,030.7,19.2,0000.0,0004.92,0002.60,0001.89
2023-08-05 02:52:00,SystemResetWarning,0832.3,5.00,000.00,029.0,025.6,000.0,037.2,030.5,19.2,0000.0,0004.85,0002.59,0001.89
2023-08-05 02:53:00,SystemResetWarning,0832.3,5.01,000.00,029.0,025.5,000.0,037.1,030.4,19.5,0000.0,0005.35,0002.52,0001.88
2023-08-05 02:54:00,SystemResetWarning,0832.3,5.01,000.00,028.9,025.7,000.0,037.2,030.3,19.5,0000.0,0005.54,0002.47,0001.86
2023-08-05 02:55:00,SystemResetWarning,0832.3,4.98,000.00,028.9,026.1,000.0,037.3,030.4,19.7,0000.0,0005.52,0002.44,0001.86
2023-08-05 02:56:00,SystemResetWarning,0832.3,4.99,000.00,028.9,026.5,000.0,037.3,030.5,19.7,0000.0,0006.23,0002.41,0001.85
2023-08-05 02:57:00,SystemResetWarning,0832.3,5.01,000.00,028.9,026.8,000.0,037.3,030.6,19.9,0000.0,0006.91,0002.40,0001.84
2023-08-05 02:58:00,SystemResetWarning,0832.3,5.01,000.00,029.0,027.2,000.0,037.3,030.7,19.7,0000.0,0006.34,0002.37,0001.84
2023-08-05 02:59:00,SystemResetWarning,0832.4,5.00,000.00,029.0,027.4,000.0,037.4,030.8,19.6,0000.0,0006.19,0002.35,0001.82
